{"data":{"norad_id":46352,"epoch":"2026-05-24T22:29:31.452576Z","epoch_age_seconds":76331,"freshness":"FRESH","line1":"1 46352U 20062AD  26144.93716959  .00109038  00000+0  75743-3 0  9995","line2":"2 46352  53.0389 307.0925 0007529 169.0308 191.0876 15.73585900317035","mean_motion":15.735859,"eccentricity":0.0007529,"inclination_deg":53.0389,"raan_deg":307.0925,"arg_perigee_deg":169.0308,"mean_anomaly_deg":191.0876,"bstar":0.00075743,"rev_number":31703,"period_min":91.510733541779,"perigee_km":343.59357628725,"apogee_km":353.72278446986,"semimajor_km":6726.7951803786,"source":"CELESTRAK","updated_at":"2026-05-25T13:38:16.472435Z"}}